ARIANE 5 R/B, 41749

Orbit data source: Space-Track

ARIANE 5 R/B, 41749 is space debris in HEO originally from a launch on Wed, 24 Aug 2016 UTC launched from the French Guiana (FRGUI). Debris objects in space refer to the collection of defunct objects orbiting the Earth. Examples of debris include non-operational satellites, rocket bodies, and fragments generated from explosions, collisions, or faulty payload assembly.

Loading next visibility...
Identifier
41749, 2016-053C
Orbit
HEO
Country
Flag of FRFR
Related business
Manufacturer
Airbus Safran
Mission
Spacecraft
Bus & Motor
ESC-A, Unknown motor
Mass
~5,000 kg wet, ~5,000 kg dry
Launch date (UTC)
2016-08-24 (10 years ago)
Launch vehicle
Unknown
Launch site
French Guiana (FRGUI)
Object type
Payload
Rocket body
Debris
Shape & HBR
Cyl + 1 Nozzle, 3.5 m
Radar Cross Section
41.627 m², Large (>1 m²)

Expand to show TLE details & history
Last TLE update: 15 hours ago

TLE from 15 hours ago
0 ARIANE 5 R/B
1 41749U 16053C   26121.17195828  .00002194  00000-0  10275-2 0  9996
2 41749   6.3717  50.2959 7121744 306.2496   7.3845  2.46588225 83243
Epoch: 2026-05-01T04:07Z
TLE epoch observation values (Epoch: 2026-05-01T04:07:37.195Z)
Latitude
-0.00009°
Longitude
129.21444°
Altitude
1,636.412 km
Speed
9.068 km/s
True Right ascension
03h 20m 54s
True Declination
0° 00' 00"
Sunlit
Object was in daylight at epoch
Visualization orbit readout
Latitude
Unknown
Longitude
Unknown
Altitude
Unknown
Speed
Unknown
Apparent Right ascension
Unknown
Apparent Declination
Unknown
Sunlit
N/A
Visualization observer readout
Local Sidereal Time
02:24:54
Azimuth
Unknown
Elevation
Unknown
Doppler factor
Unknown
Orbital elements
Apogee altitude
33,256.043 km
Perigee altitude
284.579 km
Semi-major axis
23,148.448 km
Eccentricity
0.71217
Inclination
6.3717°
RAAN
50.2959°
Arg. of periapsis
306.2496°
True anomaly
54.6984°
Mean anomaly
7.3845°
Eccentric anomaly
23.94623°
Mean motion
0.61625 °/min
Orbital period
584.17 mins
BSTAR
0.0010275
Loading maneuver chart data...
Computing Atmospheric mass density...
Loading historical data...
Loading historical data...
Loading historical data...
Loading historical data...
Loading historical data...
Loading historical data...
Loading historical data...

Documentation

Showing up to 5 results
|